Погода в Мишуково

Россия / Мурманская область     69°02′42″N   33°02′16″E
темп.,
°C
ветер,
м/с
пор.,
м/с
влажн.,
%
обл.,
%
осадки,
мм/ч
давл.,
гПа
погр.,
м
2 декабря, чт
чт200:00−3в91767100 0.0 9971215
03:00−3всв101766100 0.1 9971166
06:00−3всв101767100 0.1 9981094
09:00−3всв81566100 0.1 1000689
12:00−4всв61473100 0.2 1002539
15:00−5св61273100 0.4 1003397
18:00−5всв51182100 0.3 1004401
21:00−6св3982100 0.7 1005238
3 декабря, пт
пт300:00−7ссв1189100 0.3 100624
03:00−7с1292100 0.4 100731
06:00−8ссз1192100 0.2 100810
09:00−8ссз229684 0.4 101018
12:00−8с1198100 0.4 101114
15:00−9зсз019883 0.6 101310
18:00−11зсз019978 0.0 10149
21:00−11юз119981 0.1 101614
4 декабря, сб
сб400:00−13ююз229976 0.0 101720
03:00−15юз119969 0.0 101813
06:00−16юз119964 0.0 101911
09:00−16ююз119859 0.0 102117
12:00−17юз119848 0.0 102212
15:00−17юз119844 0.0 102213
18:00−17юз119942 0.0 102316
21:00−18юз219944 0.0 102517
5 декабря, вс
вс500:00−18юз119958 0.0 102513
03:00−16юз219871 0.0 102622
06:00−17юз229764 0.0 102621
09:00−18юз22987 0.0 102722
12:00−18юз22977 0.0 102831
15:00−19юз33977 0.0 102945
18:00−19юз33975 0.0 102955
21:00−17юз4138730 0.0 1029231
6 декабря, пн
пн600:00−16юз517845 0.0 1028349
03:00−15зюз618865 0.0 1028428
06:00−15юз6188510 0.0 1027413
09:00−16юз5168111 0.0 1027345
12:00−16юз5177545 0.0 1026376
15:00−15юз618717 0.0 1025417
18:00−16юз515817 0.0 1025344
21:00−17юз5149216 0.0 1023310